| time (UTC) | temp F | wind direction | speed MPH | gust MPH | rain 1hr in | rain 24hr in | rain mn in | humidity % | barometer mb |
| 20260510213038 | 68 | 339 | 0.0 | 6.0 | 0.00 | 0.13 | 0.01 | 39 | 1019.3 |
| 20260510211536 | 69 | 353 | 1.0 | 5.0 | 0.00 | 0.13 | 0.01 | 38 | 1019.4 |
| 20260510210035 | 68 | 39 | 3.0 | 7.0 | 0.00 | 0.13 | 0.01 | 37 | 1019.6 |
| 20260510204535 | 68 | 333 | 1.0 | 6.0 | 0.00 | 0.13 | 0.01 | 41 | 1019.8 |
| 20260510203034 | 67 | 323 | 3.0 | 7.0 | 0.00 | 0.13 | 0.01 | 37 | 1019.6 |
| 20260510201535 | 68 | 286 | 5.0 | 9.0 | 0.00 | 0.13 | 0.01 | 35 | 1019.5 |
| 20260510200034 | 68 | 78 | 1.0 | 6.0 | 0.00 | 0.13 | 0.01 | 40 | 1019.6 |
| 20260510194531 | 67 | 324 | 3.0 | 14.0 | 0.00 | 0.13 | 0.01 | 38 | 1019.7 |
| 20260510193031 | 68 | 322 | 1.0 | 9.0 | 0.00 | 0.13 | 0.01 | 41 | 1019.7 |
| 20260510191528 | 67 | 340 | 2.0 | 6.0 | 0.00 | 0.13 | 0.01 | 43 | 1019.7 |
| 20260510190028 | 64 | 11 | 1.0 | 5.0 | 0.00 | 0.13 | 0.01 | 44 | 1019.6 |
| 20260510184526 | 64 | 359 | 2.0 | 10.0 | 0.00 | 0.13 | 0.01 | 45 | 1019.5 |
| 20260510183028 | 66 | 333 | 3.0 | 9.0 | 0.00 | 0.13 | 0.01 | 40 | 1019.3 |
| 20260510181524 | 67 | 318 | 3.0 | 7.0 | 0.00 | 0.13 | 0.01 | 41 | 1019.3 |
| 20260510180021 | 65 | 25 | 2.0 | 5.0 | 0.00 | 0.13 | 0.01 | 49 | 1019.3 |
| 20260510174520 | 64 | 70 | 1.0 | 8.0 | 0.00 | 0.13 | 0.01 | 52 | 1019.5 |
| 20260510173018 | 62 | 341 | 0.0 | 7.0 | 0.00 | 0.13 | 0.01 | 54 | 1019.5 |
| 20260510171518 | 63 | 330 | 1.0 | 12.0 | 0.00 | 0.13 | 0.01 | 50 | 1019.7 |
| 20260510170021 | 64 | 72 | 2.0 | 15.0 | 0.00 | 0.13 | 0.01 | 49 | 1019.7 |
| 20260510164514 | 62 | 4 | 2.0 | 4.0 | 0.00 | 0.13 | 0.01 | 54 | 1019.9 |
| 20260510163013 | 61 | 334 | 0.0 | 3.0 | 0.00 | 0.13 | 0.01 | 56 | 1019.9 |
| 20260510161517 | 61 | 327 | 1.0 | 5.0 | 0.00 | 0.13 | 0.01 | 53 | 1019.9 |
| 20260510160012 | 62 | 348 | 1.0 | 7.0 | 0.00 | 0.13 | 0.01 | 51 | 1020.1 |
| 20260510154508 | 61 | 22 | 2.0 | 6.0 | 0.00 | 0.13 | 0.01 | 66 | 1020.1 |
| 20260510153012 | 59 | 359 | 3.0 | 8.0 | 0.00 | 0.13 | 0.01 | 60 | 1019.8 |
| 20260510151503 | 60 | 24 | 2.0 | 8.0 | 0.00 | 0.13 | 0.01 | 61 | 1019.4 |
| 20260510150002 | 59 | 321 | 1.0 | 9.0 | 0.00 | 0.13 | 0.01 | 58 | 1019.2 |
| 20260510144501 | 60 | 358 | 2.0 | 7.0 | 0.00 | 0.13 | 0.01 | 59 | 1019.2 |
| 20260510143059 | 60 | 343 | 3.0 | 9.0 | 0.00 | 0.13 | 0.01 | 58 | 1019.0 |
| 20260510141557 | 60 | 316 | 1.0 | 9.0 | 0.00 | 0.13 | 0.01 | 63 | 1018.6 |
| 20260510140054 | 59 | 341 | 2.0 | 6.0 | 0.00 | 0.13 | 0.01 | 66 | 1018.0 |
| 20260510134556 | 58 | 4 | 2.0 | 4.0 | 0.00 | 0.13 | 0.01 | 67 | 1018.2 |
| 20260510133051 | 57 | 330 | 3.0 | 6.0 | 0.00 | 0.13 | 0.01 | 68 | 1018.2 |
| 20260510131549 | 56 | 331 | 2.0 | 6.0 | 0.00 | 0.13 | 0.01 | 71 | 1018.3 |
| 20260510130051 | 56 | 322 | 1.0 | 6.0 | 0.00 | 0.13 | 0.01 | 72 | 1018.2 |
| 20260510124558 | 55 | 330 | 2.0 | 6.0 | 0.00 | 0.13 | 0.01 | 74 | 1017.9 |
| 20260510123044 | 54 | 25 | 1.0 | 5.0 | 0.00 | 0.13 | 0.01 | 81 | 1017.5 |
| 20260510121542 | 53 | 342 | 1.0 | 5.0 | 0.00 | 0.13 | 0.01 | 85 | 1017.2 |
| 20260510120039 | 53 | 356 | 1.0 | 4.0 | 0.00 | 0.13 | 0.01 | 86 | 1017.1 |
| 20260510114537 | 52 | 340 | 1.0 | 4.0 | 0.00 | 0.13 | 0.01 | 88 | 1016.8 |
| 20260510113038 | 52 | 344 | 1.0 | 4.0 | 0.00 | 0.13 | 0.01 | 90 | 1016.6 |
| 20260510111539 | 52 | 360 | 1.0 | 4.0 | 0.00 | 0.13 | 0.01 | 91 | 1016.2 |
| 20260510110042 | 53 | 342 | 2.0 | 4.0 | 0.00 | 0.13 | 0.01 | 89 | 1016.0 |
| 20260510104533 | 53 | 356 | 2.0 | 5.0 | 0.00 | 0.13 | 0.01 | 89 | 1015.5 |
| 20260510103031 | 53 | 14 | 0.0 | 5.0 | 0.00 | 0.13 | 0.01 | 92 | 1015.4 |
| 20260510101534 | 54 | 330 | 1.0 | 3.0 | 0.00 | 0.13 | 0.01 | 92 | 1015.0 |
| 20260510100026 | 54 | 11 | 0.0 | 3.0 | 0.00 | 0.13 | 0.01 | 93 | 1014.7 |
| 20260510094526 | 55 | 332 | 1.0 | 3.0 | 0.00 | 0.13 | 0.01 | 93 | 1014.7 |
| 20260510093023 | 55 | 359 | 1.0 | 2.0 | 0.00 | 0.13 | 0.01 | 93 | 1014.6 |
| 20260510091528 | 55 | 328 | 1.0 | 3.0 | 0.01 | 0.13 | 0.01 | 94 | 1014.5 |
| 20260510090026 | 55 | 304 | 1.0 | 2.0 | 0.01 | 0.13 | 0.01 | 95 | 1014.3 |
| 20260510084519 | 55 | 273 | 0.0 | 0.0 | 0.01 | 0.13 | 0.01 | 95 | 1014.1 |
| 20260510083015 | 56 | 326 | 0.0 | 0.0 | 0.01 | 0.13 | 0.01 | 93 | 1013.8 |
| 20260510081513 | 56 | 333 | 0.0 | 2.0 | 0.00 | 0.12 | 0.00 | 94 | 1013.4 |
| 20260510080012 | 57 | 308 | 0.0 | 0.0 | 0.00 | 0.12 | 0.00 | 94 | 1013.2 |
| 20260510074510 | 57 | 326 | 1.0 | 2.0 | 0.00 | 0.12 | 0.00 | 94 | 1012.9 |
| 20260510073010 | 58 | 347 | 0.0 | 4.0 | 0.00 | 0.12 | 0.00 | 94 | 1012.9 |
| 20260510071506 | 58 | 350 | 2.0 | 5.0 | 0.00 | 0.12 | 0.00 | 95 | 1012.7 |
| 20260510070009 | 58 | 332 | 2.0 | 5.0 | 0.00 | 0.12 | 0.00 | 94 | 1012.8 |
| 20260510064517 | 58 | 347 | 2.0 | 5.0 | 0.00 | 0.12 | 0.00 | 94 | 1012.8 |
| 20260510063003 | 58 | 323 | 1.0 | 3.0 | 0.00 | 0.12 | 0.00 | 94 | 1012.7 |
| 20260510061508 | 58 | 349 | 0.0 | 3.0 | 0.00 | 0.12 | 0.00 | 94 | 1012.6 |
| 20260510060002 | 59 | 14 | 3.0 | 8.0 | 0.00 | 0.12 | 0.00 | 94 | 1012.8 |
| 20260510054558 | 59 | 359 | 3.0 | 10.0 | 0.00 | 0.12 | 0.00 | 94 | 1012.7 |
| 20260510053054 | 60 | 330 | 1.0 | 4.0 | 0.00 | 0.12 | 0.00 | 93 | 1012.1 |
| 20260510051556 | 60 | 352 | 2.0 | 6.0 | 0.01 | 0.12 | 0.00 | 93 | 1012.3 |
| 20260510050051 | 60 | 322 | 6.0 | 12.0 | 0.04 | 0.12 | 0.00 | 92 | 1012.4 |
| 20260510044550 | 60 | 180 | 2.0 | 5.0 | 0.05 | 0.12 | 0.12 | 90 | 1011.2 |
| 20260510043049 | 60 | 133 | 2.0 | 4.0 | 0.05 | 0.11 | 0.11 | 92 | 1011.9 |
| 20260510041551 | 60 | 97 | 0.0 | 2.0 | 0.07 | 0.11 | 0.11 | 92 | 1012.1 |
| 20260510040046 | 60 | 332 | 1.0 | 5.0 | 0.07 | 0.10 | 0.08 | 91 | 1012.3 |
| 20260510034549 | 60 | 1 | 1.0 | 6.0 | 0.07 | 0.09 | 0.07 | 90 | 1011.8 |
| 20260510033053 | 61 | 11 | 2.0 | 10.0 | 0.06 | 0.08 | 0.06 | 89 | 1012.3 |
| 20260510031544 | 61 | 333 | 5.0 | 20.0 | 0.03 | 0.05 | 0.03 | 87 | 1012.3 |
| 20260510030042 | 64 | 333 | 9.0 | 23.0 | 0.01 | 0.24 | 0.01 | 79 | 1012.0 |
| 20260510024539 | 66 | 236 | 0.0 | 0.0 | 0.00 | 0.23 | 0.00 | 66 | 1009.7 |
| 20260510023039 | 65 | 236 | 0.0 | 0.0 | 0.00 | 0.23 | 0.00 | 69 | 1009.3 |
| 20260510021539 | 63 | 236 | 0.0 | 0.0 | 0.00 | 0.23 | 0.00 | 74 | 1009.1 |
| 20260510020038 | 63 | 236 | 0.0 | 0.0 | 0.00 | 0.35 | 0.00 | 75 | 1009.0 |
| 20260510014538 | 64 | 236 | 0.0 | 0.0 | 0.00 | 0.35 | 0.00 | 76 | 1008.5 |
| 20260510013038 | 65 | 236 | 0.0 | 0.0 | 0.00 | 0.35 | 0.00 | 70 | 1008.3 |
| 20260510011536 | 68 | 244 | 0.0 | 0.0 | 0.00 | 0.35 | 0.00 | 67 | 1008.4 |
| 20260510010039 | 71 | 243 | 0.0 | 0.0 | 0.00 | 0.35 | 0.00 | 59 | 1008.4 |
| 20260510004534 | 74 | 244 | 0.0 | 0.0 | 0.00 | 0.35 | 0.00 | 53 | 1008.2 |
| 20260510003033 | 79 | 243 | 0.0 | 0.0 | 0.00 | 0.35 | 0.00 | 45 | 1008.1 |
| 20260510001531 | 81 | 243 | 0.0 | 0.0 | 0.00 | 0.35 | 0.00 | 38 | 1008.0 |
| 20260510000035 | 80 | 231 | 0.0 | 3.0 | 0.00 | 0.36 | 0.00 | 39 | 1008.0 |
| 20260509234539 | 80 | 244 | 0.0 | 3.0 | 0.00 | 0.36 | 0.00 | 38 | 1007.9 |
| 20260509233027 | 81 | 297 | 0.0 | 4.0 | 0.00 | 0.36 | 0.00 | 38 | 1007.9 |
| 20260509231526 | 80 | 291 | 2.0 | 4.0 | 0.00 | 0.36 | 0.00 | 37 | 1007.9 |
| 20260509230025 | 81 | 274 | 1.0 | 5.0 | 0.00 | 0.36 | 0.00 | 39 | 1007.8 |
| 20260509224537 | 81 | 258 | 2.0 | 5.0 | 0.00 | 0.36 | 0.00 | 39 | 1007.8 |
| 20260509223023 | 81 | 226 | 2.0 | 7.0 | 0.00 | 0.36 | 0.00 | 39 | 1007.8 |
| 20260509221522 | 80 | 276 | 4.0 | 8.0 | 0.00 | 0.36 | 0.00 | 37 | 1007.8 |
| 20260509220023 | 80 | 309 | 5.0 | 9.0 | 0.00 | 0.36 | 0.00 | 36 | 1007.8 |
| 20260509214519 | 81 | 296 | 3.0 | 7.0 | 0.00 | 0.36 | 0.00 | 37 | 1007.8 |